QPF
0.00 0.00 0.00 0.00 0.00 0.00 0.00 0.00 0.00 0.00 0.00 0.00 0.00 0.00 0.00 0.00 0.01 0.02 0.03 0.03 0.03 0.04 0.03 0.02 0.01 0.00 0.01 0.01 0.01 0.01 0.02 0.03 0.03 0.04 0.04 0.04 0.04 0.05 0.05 0.06 0.06 0.04 0.03 0.03
0.00 0.00 0.00 0.00 0.00 0.00 0.00 0.00 0.00 0.00 0.00 0.00 0.00 0.00 0.00 0.00 0.01 0.01 0.02 0.02 0.02 0.02 0.02 0.01 0.01 0.01 0.01 0.01 0.01 0.01 0.02 0.02 0.03 0.03 0.04 0.03 0.04 0.05 0.04 0.04 0.05 0.04 0.04 0.03
0.00 0.00 0.00 0.00 0.00 0.00 0.00 0.00 0.00 0.00 0.00 0.00 0.00 0.00 0.00 0.00 0.01 0.01 0.01 0.01 0.02 0.01 0.01 0.01 0.01 0.01 0.01 0.01 0.01 0.01 0.01 0.02 0.02 0.02 0.02 0.03 0.03 0.03 0.02 0.03 0.03 0.03 0.03 0.02
0.00 0.00 0.00 0.00 0.00 0.00 0.00 0.00 0.00 0.00 0.00 0.00 0.00 0.00 0.00 0.00 0.00 0.00 0.01 0.01 0.01 0.01 0.01 0.01 0.01 0.01 0.01 0.01 0.01 0.01 0.02 0.02 0.02 0.02 0.02 0.03 0.02 0.02 0.02 0.03 0.02 0.02 0.02 0.02
0.00 0.00 0.00 0.00 0.00 0.00 0.00 0.00 0.00 0.00 0.00 0.00 0.00 0.00 0.00 0.00 0.00 0.00 0.00 0.01 0.01 0.01 0.01 0.01 0.01 0.01 0.01 0.01 0.01 0.01 0.02 0.02 0.02 0.03 0.03 0.03 0.02 0.02 0.02 0.01 0.01 0.02 0.02 0.03
0.00 0.00 0.00 0.00 0.00 0.00 0.00 0.00 0.00 0.00 0.00 0.00 0.00 0.00 0.00 0.00 0.00 0.00 0.00 0.01 0.01 0.01 0.01 0.00 0.00 0.00 0.01 0.01 0.01 0.01 0.01 0.01 0.02 0.03 0.05 0.05 0.04 0.04 0.04 0.03 0.02 0.02 0.02 0.02
0.00 0.00 0.00 0.00 0.00 0.00 0.00 0.00 0.00 0.00 0.00 0.00 0.00 0.00 0.00 0.00 0.00 0.00 0.00 0.01 0.01 0.01 0.01 0.00 0.00 0.00 0.01 0.01 0.01 0.01 0.02 0.03 0.03 0.04 0.05 0.05 0.03 0.03 0.03 0.04 0.03 0.03 0.03 0.03
0.00 0.00 0.00 0.00 0.00 0.00 0.00 0.00 0.00 0.01 0.00 0.00 0.00 0.00 0.00 0.00 0.00 0.00 0.00 0.00 0.00 0.01 0.01 0.00 0.00 0.00 0.00 0.01 0.01 0.02 0.03 0.03 0.03 0.02 0.02 0.02 0.02 0.02 0.01 0.02 0.02 0.03 0.03 0.02
0.00 0.00 0.00 0.00 0.00 0.00 0.00 0.00 0.00 0.00 0.00 0.00 0.00 0.00 0.00 0.00 0.00 0.00 0.00 0.00 0.00 0.01 0.01 0.00 0.01 0.01 0.00 0.01 0.01 0.02 0.02 0.01 0.01 0.01 0.01 0.02 0.01 0.02 0.02 0.02 0.02 0.02 0.03 0.03
0.00 0.00 0.00 0.00 0.00 0.00 0.00 0.00 0.00 0.00 0.00 0.00 0.00 0.00 0.00 0.00 0.00 0.00 0.00 0.00 0.00 0.01 0.01 0.00 0.01 0.00 0.01 0.01 0.01 0.01 0.01 0.01 0.01 0.01 0.01 0.02 0.02 0.02 0.01 0.02 0.03 0.03 0.03 0.03
0.00 0.00 0.00 0.00 0.00 0.00 0.00 0.00 0.00 0.00 0.00 0.00 0.00 0.00 0.00 0.00 0.00 0.00 0.00 0.00 0.00 0.01 0.00 0.00 0.00 0.00 0.00 0.00 0.00 0.01 0.01 0.01 0.02 0.02 0.02 0.03 0.03 0.02 0.02 0.01 0.01 0.03 0.04 0.04
0.00 0.00 0.00 0.00 0.00 0.00 0.00 0.00 0.00 0.00 0.00 0.00 0.00 0.00 0.00 0.00 0.00 0.00 0.00 0.00 0.00 0.01 0.00 0.00 0.00 0.00 0.00 0.00 0.01 0.01 0.01 0.02 0.03 0.05 0.06 0.05 0.02 0.02 0.02 0.01 0.01 0.01 0.02 0.03
0.00 0.00 0.00 0.00 0.00 0.00 0.00 0.00 0.00 0.00 0.00 0.00 0.00 0.00 0.00 0.00 0.00 0.00 0.00 0.00 0.00 0.00 0.00 0.00 0.00 0.00 0.00 0.00 0.00 0.01 0.01 0.03 0.06 0.08 0.07 0.03 0.01 0.01 0.01 0.01 0.01 0.01 0.01 0.01
0.00 0.00 0.00 0.00 0.00 0.00 0.00 0.00 0.00 0.00 0.00 0.00 0.00 0.00 0.00 0.00 0.00 0.00 0.00 0.00 0.00 0.00 0.00 0.00 0.00 0.00 0.00 0.01 0.01 0.01 0.02 0.02 0.02 0.02 0.01 0.01 0.01 0.01 0.02 0.01 0.01 0.01 0.01 0.01
0.00 0.00 0.00 0.00 0.00 0.00 0.00 0.00 0.00 0.00 0.00 0.00 0.00 0.00 0.00 0.00 0.00 0.00 0.00 0.00 0.00 0.00 0.00 0.00 0.01 0.01 0.01 0.00 0.01 0.01 0.02 0.02 0.02 0.02 0.02 0.02 0.02 0.02 0.02 0.01 0.01 0.01 0.01 0.01
0.00 0.00 0.00 0.00 0.00 0.00 0.00 0.00 0.00 0.00 0.00 0.00 0.00 0.00 0.00 0.00 0.00 0.00 0.00 0.00 0.00 0.01 0.01 0.00 0.01 0.01 0.01 0.01 0.01 0.02 0.02 0.02 0.02 0.01 0.01 0.01 0.01 0.01 0.01 0.01 0.01 0.01 0.01 0.01
0.00 0.00 0.00 0.00 0.00 0.00 0.00 0.00 0.00 0.00 0.00 0.00 0.00 0.00 0.00 0.00 0.00 0.00 0.00 0.00 0.01 0.01 0.00 0.00 0.01 0.00 0.00 0.00 0.01 0.01 0.01 0.01 0.01 0.00 0.00 0.01 0.01 0.00 0.01 0.01 0.01 0.01 0.01 0.02
0.00 0.00 0.00 0.00 0.00 0.00 0.00 0.00 0.00 0.00 0.00 0.00 0.00 0.00 0.00 0.00 0.01 0.00 0.00 0.00 0.00 0.00 0.01 0.00 0.01 0.00 0.00 0.00 0.00 0.00 0.01 0.01 0.01 0.01 0.01 0.01 0.00 0.00 0.01 0.01 0.01 0.02 0.01 0.02
0.00 0.00 0.00 0.00 0.00 0.00 0.00 0.00 0.00 0.00 0.00 0.00 0.00 0.00 0.00 0.00 0.00 0.00 0.00 0.00 0.00 0.01 0.00 0.00 0.00 0.00 0.00 0.00 0.00 0.00 0.01 0.01 0.01 0.01 0.01 0.01 0.01 0.01 0.01 0.02 0.02 0.01 0.01 0.02
0.00 0.00 0.00 0.00 0.00 0.00 0.00 0.00 0.00 0.00 0.00 0.00 0.00 0.00 0.00 0.00 0.00 0.00 0.01 0.00 0.00 0.00 0.00 0.00 0.00 0.00 0.00 0.00 0.00 0.01 0.01 0.02 0.02 0.02 0.02 0.01 0.02 0.02 0.02 0.02 0.02 0.02 0.02 0.02
0.01 0.00 0.00 0.00 0.00 0.00 0.00 0.00 0.00 0.00 0.00 0.00 0.00 0.00 0.00 0.00 0.00 0.00 0.00 0.00 0.00 0.00 0.00 0.00 0.00 0.00 0.00 0.01 0.01 0.02 0.03 0.04 0.05 0.04 0.03 0.03 0.02 0.02 0.02 0.02 0.02 0.01 0.02 0.02
0.01 0.01 0.01 0.00 0.00 0.01 0.00 0.00 0.00 0.00 0.00 0.00 0.00 0.00 0.00 0.00 0.00 0.01 0.00 0.00 0.00 0.00 0.00 0.00 0.00 0.00 0.01 0.01 0.02 0.02 0.03 0.04 0.04 0.04 0.03 0.04 0.05 0.04 0.02 0.02 0.02 0.02 0.02 0.01
0.00 0.01 0.01 0.01 0.00 0.01 0.01 0.01 0.01 0.00 0.00 0.00 0.00 0.00 0.00 0.00 0.01 0.01 0.00 0.00 0.00 0.00 0.00 0.00 0.00 0.01 0.01 0.02 0.03 0.03 0.03 0.02 0.02 0.02 0.02 0.02 0.02 0.02 0.02 0.02 0.02 0.01 0.01 0.01
0.00 0.00 0.01 0.01 0.01 0.01 0.01 0.00 0.00 0.00 0.00 0.01 0.00 0.00 0.00 0.00 0.01 0.01 0.01 0.00 0.00 0.00 0.00 0.00 0.01 0.01 0.03 0.03 0.04 0.04 0.04 0.03 0.03 0.02 0.01 0.01 0.01 0.01 0.02 0.02 0.02 0.02 0.02 0.02
0.01 0.01 0.01 0.02 0.02 0.01 0.01 0.00 0.00 0.00 0.00 0.00 0.01 0.00 0.01 0.01 0.01 0.01 0.01 0.00 0.00 0.00 0.00 0.01 0.01 0.02 0.03 0.03 0.03 0.03 0.03 0.02 0.02 0.01 0.01 0.01 0.01 0.01 0.01 0.01 0.02 0.02 0.01 0.02
0.02 0.03 0.03 0.02 0.02 0.02 0.02 0.01 0.01 0.01 0.01 0.01 0.00 0.01 0.01 0.01 0.01 0.01 0.00 0.00 0.00 0.01 0.01 0.02 0.02 0.03 0.03 0.02 0.03 0.03 0.02 0.02 0.01 0.01 0.01 0.01 0.01 0.01 0.01 0.01 0.02 0.02 0.02 0.02
MSLP
1009.43 1009.81 1010.04 1010.12 1010.06 1009.93 1009.77 1009.68 1009.68 1009.82 1010.07 1010.39 1010.70 1010.93 1011.01 1010.89 1010.54 1010.01 1009.33 1008.59 1007.86 1007.24 1006.80 1006.58 1006.59 1006.83 1007.26 1007.83 1008.49 1009.20 1009.90 1010.58 1011.21 1011.79 1012.33 1012.83 1013.30 1013.76 1014.19 1014.62 1015.03 1015.43 1015.83 1016.22
1009.88 1010.14 1010.26 1010.24 1010.11 1009.94 1009.78 1009.70 1009.75 1009.92 1010.21 1010.56 1010.90 1011.16 1011.29 1011.24 1011.01 1010.61 1010.10 1009.53 1008.97 1008.49 1008.14 1007.95 1007.93 1008.07 1008.34 1008.74 1009.21 1009.73 1010.29 1010.86 1011.44 1012.00 1012.56 1013.10 1013.61 1014.10 1014.56 1014.99 1015.40 1015.79 1016.17 1016.54
1010.19 1010.33 1010.35 1010.25 1010.09 1009.91 1009.79 1009.76 1009.86 1010.08 1010.39 1010.75 1011.09 1011.35 1011.49 1011.48 1011.32 1011.04 1010.68 1010.29 1009.91 1009.59 1009.36 1009.22 1009.20 1009.26 1009.42 1009.65 1009.95 1010.32 1010.74 1011.21 1011.72 1012.27 1012.83 1013.40 1013.94 1014.46 1014.93 1015.37 1015.76 1016.13 1016.49 1016.84
1010.32 1010.35 1010.28 1010.15 1009.99 1009.86 1009.81 1009.87 1010.04 1010.32 1010.66 1011.01 1011.32 1011.54 1011.64 1011.62 1011.49 1011.29 1011.04 1010.80 1010.59 1010.42 1010.31 1010.26 1010.26 1010.29 1010.36 1010.48 1010.64 1010.88 1011.19 1011.58 1012.05 1012.58 1013.14 1013.73 1014.29 1014.82 1015.30 1015.72 1016.10 1016.45 1016.78 1017.10
1010.27 1010.21 1010.09 1009.95 1009.83 1009.79 1009.84 1010.02 1010.29 1010.64 1011.00 1011.33 1011.59 1011.73 1011.76 1011.69 1011.54 1011.37 1011.20 1011.06 1010.98 1010.95 1010.96 1011.00 1011.03 1011.07 1011.09 1011.14 1011.22 1011.36 1011.60 1011.94 1012.37 1012.90 1013.47 1014.06 1014.64 1015.17 1015.64 1016.04 1016.39 1016.71 1017.01 1017.32
1010.10 1009.96 1009.80 1009.68 1009.63 1009.69 1009.87 1010.18 1010.56 1010.98 1011.36 1011.67 1011.86 1011.92 1011.86 1011.70 1011.50 1011.32 1011.18 1011.11 1011.13 1011.21 1011.32 1011.43 1011.52 1011.57 1011.59 1011.60 1011.64 1011.73 1011.93 1012.24 1012.67 1013.20 1013.78 1014.38 1014.96 1015.48 1015.92 1016.29 1016.61 1016.90 1017.18 1017.47
1009.87 1009.66 1009.49 1009.39 1009.41 1009.57 1009.88 1010.30 1010.78 1011.26 1011.66 1011.95 1012.08 1012.05 1011.89 1011.65 1011.39 1011.17 1011.04 1011.01 1011.10 1011.25 1011.45 1011.63 1011.77 1011.86 1011.88 1011.89 1011.91 1011.99 1012.17 1012.48 1012.91 1013.44 1014.04 1014.64 1015.21 1015.71 1016.13 1016.47 1016.75 1017.00 1017.26 1017.54
1009.65 1009.40 1009.20 1009.12 1009.19 1009.43 1009.82 1010.33 1010.88 1011.39 1011.81 1012.07 1012.14 1012.05 1011.81 1011.51 1011.20 1010.96 1010.83 1010.84 1010.96 1011.18 1011.44 1011.68 1011.87 1011.98 1012.03 1012.04 1012.06 1012.15 1012.33 1012.65 1013.09 1013.63 1014.22 1014.83 1015.39 1015.87 1016.26 1016.57 1016.81 1017.03 1017.26 1017.53
1009.52 1009.21 1008.99 1008.90 1008.99 1009.26 1009.69 1010.23 1010.80 1011.33 1011.73 1011.96 1012.00 1011.85 1011.58 1011.24 1010.92 1010.69 1010.58 1010.63 1010.80 1011.07 1011.38 1011.66 1011.89 1012.03 1012.10 1012.12 1012.15 1012.24 1012.44 1012.76 1013.20 1013.74 1014.34 1014.94 1015.48 1015.95 1016.31 1016.58 1016.79 1016.98 1017.19 1017.45
1009.47 1009.13 1008.88 1008.77 1008.84 1009.09 1009.49 1010.00 1010.54 1011.03 1011.39 1011.59 1011.60 1011.44 1011.17 1010.85 1010.56 1010.37 1010.32 1010.42 1010.65 1010.98 1011.33 1011.65 1011.91 1012.07 1012.16 1012.19 1012.23 1012.32 1012.52 1012.84 1013.28 1013.82 1014.40 1014.99 1015.52 1015.96 1016.30 1016.54 1016.73 1016.90 1017.08 1017.32
1009.52 1009.15 1008.87 1008.72 1008.73 1008.92 1009.24 1009.67 1010.12 1010.52 1010.82 1010.97 1010.96 1010.81 1010.57 1010.31 1010.10 1009.99 1010.03 1010.21 1010.52 1010.91 1011.32 1011.68 1011.96 1012.15 1012.25 1012.29 1012.33 1012.43 1012.62 1012.93 1013.35 1013.87 1014.44 1015.00 1015.51 1015.93 1016.25 1016.48 1016.65 1016.80 1016.97 1017.19
1009.61 1009.24 1008.93 1008.74 1008.68 1008.76 1008.98 1009.27 1009.59 1009.88 1010.09 1010.18 1010.15 1010.02 1009.84 1009.67 1009.56 1009.57 1009.72 1010.00 1010.40 1010.86 1011.32 1011.73 1012.04 1012.25 1012.36 1012.42 1012.47 1012.56 1012.74 1013.03 1013.44 1013.93 1014.46 1015.00 1015.48 1015.89 1016.19 1016.42 1016.58 1016.72 1016.88 1017.08
1009.69 1009.34 1009.03 1008.80 1008.67 1008.64 1008.72 1008.86 1009.04 1009.19 1009.29 1009.31 1009.26 1009.16 1009.04 1008.96 1008.97 1009.10 1009.37 1009.76 1010.25 1010.79 1011.31 1011.75 1012.10 1012.34 1012.48 1012.55 1012.61 1012.71 1012.88 1013.15 1013.53 1013.99 1014.49 1014.99 1015.45 1015.84 1016.14 1016.36 1016.52 1016.67 1016.82 1017.00
1009.73 1009.42 1009.12 1008.87 1008.67 1008.54 1008.49 1008.48 1008.50 1008.51 1008.50 1008.46 1008.38 1008.29 1008.23 1008.24 1008.35 1008.60 1008.98 1009.47 1010.04 1010.64 1011.21 1011.71 1012.09 1012.36 1012.54 1012.64 1012.72 1012.83 1013.00 1013.26 1013.62 1014.04 1014.51 1014.98 1015.41 1015.78 1016.08 1016.30 1016.48 1016.63 1016.78 1016.96
1009.72 1009.46 1009.19 1008.92 1008.67 1008.46 1008.29 1008.14 1008.02 1007.91 1007.79 1007.67 1007.56 1007.48 1007.47 1007.55 1007.75 1008.08 1008.54 1009.11 1009.74 1010.39 1011.00 1011.53 1011.96 1012.27 1012.48 1012.63 1012.74 1012.88 1013.07 1013.33 1013.66 1014.06 1014.50 1014.94 1015.35 1015.70 1016.00 1016.23 1016.42 1016.58 1016.75 1016.94
1009.70 1009.48 1009.23 1008.95 1008.66 1008.38 1008.10 1007.84 1007.60 1007.37 1007.16 1006.98 1006.84 1006.77 1006.78 1006.91 1007.17 1007.55 1008.07 1008.67 1009.33 1010.01 1010.64 1011.20 1011.66 1012.01 1012.28 1012.48 1012.64 1012.82 1013.04 1013.31 1013.64 1014.03 1014.44 1014.85 1015.24 1015.58 1015.88 1016.12 1016.32 1016.51 1016.70 1016.90
1009.70 1009.50 1009.26 1008.96 1008.63 1008.28 1007.92 1007.56 1007.22 1006.90 1006.62 1006.39 1006.23 1006.15 1006.17 1006.33 1006.61 1007.03 1007.55 1008.17 1008.83 1009.50 1010.14 1010.71 1011.20 1011.59 1011.91 1012.17 1012.40 1012.64 1012.90 1013.20 1013.54 1013.92 1014.32 1014.71 1015.08 1015.42 1015.71 1015.96 1016.19 1016.40 1016.60 1016.82
1009.81 1009.59 1009.31 1008.97 1008.58 1008.16 1007.72 1007.28 1006.86 1006.47 1006.14 1005.87 1005.68 1005.60 1005.63 1005.80 1006.09 1006.50 1007.01 1007.61 1008.25 1008.90 1009.52 1010.09 1010.60 1011.03 1011.40 1011.73 1012.03 1012.33 1012.64 1012.99 1013.35 1013.74 1014.14 1014.52 1014.89 1015.21 1015.50 1015.76 1016.00 1016.23 1016.46 1016.69
1010.05 1009.77 1009.42 1009.01 1008.54 1008.03 1007.51 1006.99 1006.50 1006.06 1005.68 1005.39 1005.19 1005.11 1005.14 1005.30 1005.59 1005.98 1006.47 1007.03 1007.63 1008.24 1008.84 1009.40 1009.91 1010.37 1010.80 1011.18 1011.56 1011.93 1012.31 1012.70 1013.11 1013.53 1013.93 1014.32 1014.68 1015.00 1015.29 1015.55 1015.80 1016.05 1016.29 1016.54
1010.44 1010.07 1009.62 1009.10 1008.53 1007.92 1007.31 1006.71 1006.16 1005.67 1005.26 1004.95 1004.75 1004.66 1004.70 1004.85 1005.12 1005.49 1005.95 1006.46 1007.01 1007.58 1008.14 1008.69 1009.20 1009.69 1010.15 1010.60 1011.05 1011.49 1011.94 1012.39 1012.85 1013.30 1013.73 1014.13 1014.49 1014.82 1015.11 1015.37 1015.63 1015.87 1016.13 1016.38
1010.94 1010.47 1009.91 1009.27 1008.58 1007.87 1007.16 1006.49 1005.87 1005.34 1004.91 1004.58 1004.37 1004.29 1004.32 1004.47 1004.72 1005.06 1005.47 1005.94 1006.45 1006.97 1007.50 1008.02 1008.54 1009.04 1009.54 1010.04 1010.55 1011.06 1011.58 1012.10 1012.61 1013.10 1013.56 1013.98 1014.36 1014.69 1014.99 1015.25 1015.50 1015.75 1016.00 1016.26
1011.48 1010.91 1010.24 1009.50 1008.70 1007.90 1007.10 1006.36 1005.70 1005.12 1004.67 1004.33 1004.11 1004.02 1004.04 1004.18 1004.41 1004.72 1005.10 1005.52 1005.98 1006.46 1006.96 1007.46 1007.97 1008.48 1009.01 1009.55 1010.11 1010.68 1011.26 1011.85 1012.41 1012.95 1013.45 1013.90 1014.30 1014.65 1014.94 1015.21 1015.46 1015.70 1015.94 1016.19
1011.97 1011.33 1010.58 1009.76 1008.89 1008.01 1007.16 1006.38 1005.67 1005.08 1004.60 1004.25 1004.02 1003.92 1003.93 1004.04 1004.24 1004.52 1004.86 1005.24 1005.65 1006.09 1006.55 1007.03 1007.53 1008.05 1008.59 1009.16 1009.76 1010.38 1011.01 1011.65 1012.27 1012.85 1013.40 1013.88 1014.31 1014.67 1014.97 1015.24 1015.48 1015.71 1015.94 1016.18
1012.29 1011.63 1010.86 1010.01 1009.11 1008.21 1007.35 1006.55 1005.83 1005.23 1004.75 1004.39 1004.15 1004.03 1004.01 1004.10 1004.26 1004.50 1004.79 1005.12 1005.49 1005.89 1006.31 1006.76 1007.24 1007.76 1008.30 1008.89 1009.50 1010.15 1010.82 1011.49 1012.15 1012.78 1013.36 1013.88 1014.34 1014.72 1015.03 1015.30 1015.54 1015.75 1015.97 1016.19
1012.38 1011.75 1011.00 1010.18 1009.32 1008.45 1007.62 1006.85 1006.17 1005.58 1005.11 1004.76 1004.51 1004.37 1004.32 1004.37 1004.49 1004.68 1004.92 1005.20 1005.52 1005.87 1006.26 1006.67 1007.12 1007.61 1008.15 1008.72 1009.34 1009.99 1010.68 1011.37 1012.05 1012.70 1013.31 1013.86 1014.33 1014.73 1015.06 1015.34 1015.57 1015.78 1015.98 1016.18
1012.19 1011.62 1010.95 1010.21 1009.44 1008.66 1007.92 1007.23 1006.62 1006.09 1005.66 1005.32 1005.08 1004.93 1004.85 1004.86 1004.93 1005.07 1005.25 1005.48 1005.74 1006.04 1006.38 1006.75 1007.16 1007.61 1008.11 1008.65 1009.25 1009.88 1010.54 1011.23 1011.91 1012.57 1013.18 1013.74 1014.24 1014.65 1014.99 1015.28 1015.51 1015.72 1015.91 1016.11
Thickness
5842 5835 5829 5834 5839 5837 5834 5830 5829 5833 5844 5836 5831 5831 5835 5838 5834 5830 5829 5827 5824 5823 5825 5825 5822 5820 5817 5814 5810 5808 5805 5803 5800 5799 5796 5794 5792 5791 5791 5789 5786 5784 5782 5781
5830 5827 5839 5843 5841 5837 5834 5828 5830 5836 5842 5835 5831 5831 5838 5839 5835 5835 5832 5829 5828 5826 5826 5824 5823 5820 5817 5814 5811 5809 5806 5804 5802 5800 5797 5795 5793 5793 5791 5789 5785 5783 5782 5780
5825 5835 5843 5838 5834 5831 5833 5831 5829 5829 5837 5841 5833 5827 5832 5837 5838 5837 5835 5834 5834 5830 5827 5824 5822 5821 5819 5816 5813 5812 5808 5806 5803 5801 5799 5796 5792 5790 5789 5786 5785 5783 5781 5780
5829 5840 5836 5833 5833 5832 5827 5839 5835 5832 5828 5827 5828 5814 5826 5833 5831 5832 5833 5834 5834 5834 5832 5829 5825 5822 5821 5820 5818 5814 5810 5806 5804 5801 5799 5794 5790 5787 5786 5785 5785 5783 5781 5779
5826 5834 5832 5828 5834 5837 5833 5841 5837 5834 5830 5827 5829 5819 5826 5834 5825 5829 5833 5835 5836 5835 5834 5831 5829 5826 5825 5824 5821 5817 5812 5807 5804 5801 5797 5793 5791 5789 5788 5786 5783 5781 5781 5779
5833 5843 5840 5838 5843 5843 5840 5836 5834 5834 5833 5812 5821 5816 5815 5830 5827 5832 5835 5835 5835 5835 5834 5833 5832 5829 5826 5825 5821 5818 5812 5807 5804 5801 5797 5793 5790 5787 5785 5782 5781 5781 5781 5779
5820 5832 5842 5845 5833 5837 5835 5824 5810 5805 5806 5809 5824 5816 5816 5834 5837 5835 5833 5834 5835 5835 5833 5831 5829 5826 5824 5822 5819 5816 5811 5806 5804 5801 5797 5794 5790 5787 5783 5782 5781 5779 5779 5778
5806 5811 5833 5839 5834 5829 5831 5828 5805 5791 5798 5812 5818 5812 5825 5837 5839 5838 5836 5835 5832 5832 5831 5829 5828 5825 5823 5820 5817 5814 5810 5806 5803 5800 5797 5794 5791 5789 5787 5783 5782 5780 5779 5777
5809 5810 5833 5838 5841 5837 5825 5826 5836 5819 5812 5803 5815 5818 5826 5835 5832 5831 5830 5829 5827 5827 5828 5826 5826 5824 5822 5819 5817 5814 5809 5805 5802 5799 5796 5792 5790 5787 5785 5783 5780 5780 5777 5776
5817 5803 5821 5831 5834 5832 5834 5832 5823 5811 5789 5789 5804 5809 5814 5817 5820 5824 5824 5823 5823 5824 5824 5823 5822 5821 5820 5819 5816 5813 5808 5804 5800 5797 5795 5792 5789 5786 5782 5781 5778 5776 5774 5771
5818 5802 5809 5817 5813 5817 5818 5818 5816 5814 5808 5795 5791 5805 5827 5822 5821 5821 5822 5821 5820 5820 5820 5819 5819 5818 5817 5816 5813 5809 5805 5802 5798 5795 5792 5789 5787 5784 5781 5777 5774 5772 5770 5767
5810 5806 5799 5808 5822 5826 5822 5818 5815 5798 5793 5800 5798 5805 5832 5827 5826 5822 5820 5819 5818 5817 5817 5816 5815 5814 5812 5810 5808 5805 5803 5800 5797 5794 5790 5787 5784 5781 5778 5775 5771 5769 5766 5764
5802 5794 5780 5788 5800 5809 5808 5812 5814 5813 5804 5798 5794 5801 5826 5823 5820 5819 5816 5814 5812 5810 5810 5809 5807 5806 5805 5804 5802 5801 5799 5796 5794 5791 5787 5784 5780 5776 5773 5771 5768 5765 5762 5760
5797 5791 5784 5781 5794 5804 5797 5801 5806 5804 5795 5795 5798 5804 5811 5812 5810 5810 5810 5809 5808 5805 5802 5801 5799 5799 5798 5798 5797 5795 5793 5792 5789 5786 5783 5779 5776 5772 5770 5767 5764 5761 5758 5756
5792 5782 5786 5792 5799 5800 5797 5797 5798 5797 5799 5795 5799 5804 5806 5809 5807 5806 5805 5804 5801 5798 5795 5794 5793 5792 5792 5792 5791 5789 5788 5786 5783 5779 5776 5774 5771 5768 5765 5762 5759 5756 5754 5752
5782 5774 5778 5778 5788 5790 5786 5792 5795 5794 5797 5796 5796 5797 5810 5810 5807 5801 5799 5796 5793 5792 5790 5789 5788 5786 5785 5785 5784 5783 5781 5779 5777 5773 5770 5768 5765 5762 5759 5756 5753 5750 5747 5745
5771 5765 5762 5768 5779 5776 5770 5786 5789 5790 5795 5795 5788 5794 5800 5796 5793 5791 5790 5789 5786 5786 5784 5783 5782 5780 5780 5780 5779 5776 5775 5773 5769 5766 5764 5761 5759 5755 5753 5751 5747 5743 5740 5738
5757 5755 5759 5763 5758 5743 5777 5796 5793 5788 5790 5793 5792 5793 5791 5790 5791 5791 5789 5784 5780 5780 5777 5777 5777 5776 5776 5776 5774 5772 5770 5766 5763 5760 5757 5754 5752 5748 5746 5743 5739 5736 5734 5731
5756 5749 5750 5752 5749 5756 5771 5780 5781 5774 5775 5787 5783 5783 5784 5785 5783 5780 5782 5780 5776 5775 5773 5772 5772 5772 5770 5769 5767 5765 5762 5759 5756 5752 5750 5747 5745 5741 5738 5734 5731 5729 5726 5724
5745 5744 5743 5742 5735 5739 5761 5775 5780 5771 5760 5778 5778 5774 5773 5772 5766 5769 5773 5772 5770 5769 5767 5766 5766 5764 5761 5760 5759 5756 5754 5751 5748 5745 5743 5741 5738 5734 5731 5727 5724 5722 5719 5717
5730 5729 5731 5733 5733 5747 5758 5766 5765 5745 5751 5766 5769 5767 5766 5764 5765 5766 5767 5763 5761 5760 5758 5757 5755 5753 5751 5751 5750 5747 5745 5742 5741 5739 5735 5732 5730 5727 5724 5721 5718 5714 5712 5709
5723 5725 5723 5727 5723 5731 5749 5752 5746 5745 5753 5757 5759 5760 5758 5758 5758 5758 5756 5754 5752 5751 5749 5748 5745 5743 5743 5743 5740 5737 5734 5734 5733 5731 5727 5723 5720 5719 5717 5713 5710 5708 5704 5701
5717 5720 5725 5724 5726 5732 5741 5741 5742 5744 5744 5746 5748 5750 5749 5748 5747 5747 5746 5745 5744 5742 5741 5739 5737 5734 5734 5733 5731 5727 5726 5725 5723 5721 5718 5715 5712 5710 5707 5704 5702 5700 5697 5695
5709 5711 5711 5711 5721 5725 5728 5730 5732 5734 5735 5738 5741 5741 5741 5739 5739 5738 5736 5735 5734 5733 5731 5730 5728 5725 5723 5722 5721 5718 5717 5715 5713 5710 5708 5705 5703 5701 5698 5696 5694 5692 5689 5687
5699 5699 5700 5701 5708 5712 5716 5718 5721 5724 5727 5729 5731 5732 5732 5731 5729 5728 5726 5724 5723 5722 5721 5720 5718 5715 5714 5712 5711 5710 5708 5705 5703 5701 5699 5697 5695 5693 5688 5685 5682 5681 5677 5675
5693 5691 5689 5694 5701 5702 5704 5710 5713 5713 5714 5717 5718 5719 5722 5722 5720 5719 5717 5716 5714 5712 5711 5709 5707 5706 5705 5703 5701 5700 5698 5696 5693 5691 5689 5689 5687 5684 5681 5678 5674 5667 5665 5661